TimeCDT,TemperatureF,Dew PointF,Humidity,Sea Level PressureIn,VisibilityMPH,Wind Direction,Wind SpeedMPH,Gust SpeedMPH,PrecipitationIn,Events,Conditions,WindDirDegrees,DateUTC
12:15 AM,54.1,53.1,96,29.87,7.0,Calm,Calm,-,N/A,,Scattered Clouds,0,2013-08-02 05:15:00
12:35 AM,53.4,52.7,97,29.87,7.0,Calm,Calm,-,N/A,,Clear,0,2013-08-02 05:35:00
12:55 AM,53.1,52.3,97,29.86,10.0,Calm,Calm,-,N/A,,Scattered Clouds,0,2013-08-02 05:55:00
1:15 AM,52.0,51.3,97,29.86,7.0,Calm,Calm,-,N/A,,Mostly Cloudy,0,2013-08-02 06:15:00
1:35 AM,58.8,53.1,81,29.87,10.0,North,5.8,-,N/A,,Overcast,10,2013-08-02 06:35:00
1:55 AM,59.2,51.3,75,29.87,10.0,North,5.8,-,N/A,,Mostly Cloudy,10,2013-08-02 06:55:00
2:15 AM,57.6,51.4,80,29.89,5.0,NNE,6.9,-,N/A,Rain,Light Rain,20,2013-08-02 07:15:00
2:35 AM,56.3,52.7,88,29.86,10.0,NE,3.5,-,N/A,,Mostly Cloudy,40,2013-08-02 07:35:00
2:55 AM,55.6,53.2,92,29.88,10.0,WNW,4.6,-,N/A,Rain,Light Rain,290,2013-08-02 07:55:00
3:15 AM,55.2,53.8,95,29.89,5.0,Calm,Calm,-,N/A,Rain,Rain,0,2013-08-02 08:15:00
3:35 AM,54.9,53.8,96,29.87,10.0,Calm,Calm,-,N/A,Rain,Light Rain,0,2013-08-02 08:35:00
3:55 AM,54.5,53.8,97,29.86,10.0,SSE,3.5,-,N/A,,Light Drizzle,160,2013-08-02 08:55:00
4:15 AM,54.3,53.8,98,29.85,10.0,Calm,Calm,-,N/A,,Overcast,0,2013-08-02 09:15:00
4:35 AM,53.6,53.2,99,29.85,10.0,Calm,Calm,-,N/A,,Mostly Cloudy,0,2013-08-02 09:35:00
4:55 AM,52.5,52.2,99,29.85,7.0,Calm,Calm,-,N/A,,Scattered Clouds,0,2013-08-02 09:55:00
5:15 AM,51.1,50.7,99,29.85,2.0,Calm,Calm,-,N/A,,Clear,0,2013-08-02 10:15:00
5:35 AM,50.7,50.4,99,29.85,7.0,Calm,Calm,-,N/A,,Clear,0,2013-08-02 10:35:00
5:55 AM,49.1,48.7,99,29.85,0.5,Calm,Calm,-,N/A,Fog,Fog,0,2013-08-02 10:55:00
6:15 AM,49.6,49.5,99,29.85,1.8,Calm,Calm,-,N/A,,Mist,0,2013-08-02 11:15:00
6:35 AM,50.9,50.9,100,29.85,3.0,Calm,Calm,-,N/A,,Clear,0,2013-08-02 11:35:00
6:55 AM,53.8,53.8,100,29.86,7.0,Calm,Calm,-,N/A,,Clear,0,2013-08-02 11:55:00
7:15 AM,54.9,54.9,100,29.86,10.0,West,3.5,-,N/A,,Clear,280,2013-08-02 12:15:00
7:35 AM,55.9,55.9,100,29.87,10.0,Calm,Calm,-,N/A,,Clear,0,2013-08-02 12:35:00
7:55 AM,56.8,56.8,100,29.87,10.0,NW,4.6,-,N/A,,Clear,320,2013-08-02 12:55:00
8:15 AM,58.3,58.1,99,29.87,10.0,WNW,3.5,-,N/A,,Clear,290,2013-08-02 13:15:00
8:35 AM,60.8,55.6,83,29.87,10.0,WNW,4.6,-,N/A,,Clear,300,2013-08-02 13:35:00
8:55 AM,61.2,54.5,79,29.88,10.0,WNW,6.9,16.1,N/A,,Clear,300,2013-08-02 13:55:00
9:15 AM,61.9,54.0,75,29.88,10.0,NNW,6.9,-,N/A,,Clear,330,2013-08-02 14:15:00
9:35 AM,62.4,54.0,74,29.89,10.0,NNW,8.1,-,N/A,,Clear,330,2013-08-02 14:35:00
9:55 AM,63.5,54.3,72,29.89,10.0,WNW,4.6,-,N/A,,Clear,300,2013-08-02 14:55:00
10:15 AM,64.4,53.4,67,29.89,10.0,NW,10.4,-,N/A,,Scattered Clouds,320,2013-08-02 15:15:00
10:35 AM,65.3,52.3,63,29.89,10.0,NNW,9.2,-,N/A,,Clear,330,2013-08-02 15:35:00
10:55 AM,66.4,53.1,62,29.89,10.0,NW,6.9,-,N/A,,Scattered Clouds,320,2013-08-02 15:55:00
11:15 AM,66.9,51.8,58,29.89,10.0,NW,10.4,17.3,N/A,,Scattered Clouds,320,2013-08-02 16:15:00
11:35 AM,66.6,50.4,56,29.89,10.0,NNW,6.9,-,N/A,,Scattered Clouds,330,2013-08-02 16:35:00
11:55 AM,68.4,50.4,53,29.90,10.0,NNW,10.4,16.1,N/A,,Scattered Clouds,340,2013-08-02 16:55:00
12:15 PM,68.5,49.6,51,29.89,10.0,WNW,8.1,18.4,N/A,,Scattered Clouds,290,2013-08-02 17:15:00
12:35 PM,68.5,50.2,52,29.90,10.0,NW,9.2,-,N/A,,Scattered Clouds,310,2013-08-02 17:35:00
12:55 PM,68.4,49.5,51,29.90,10.0,NNW,10.4,17.3,N/A,,Mostly Cloudy,330,2013-08-02 17:55:00
1:15 PM,67.5,47.1,48,29.90,10.0,NW,8.1,19.6,N/A,,Mostly Cloudy,310,2013-08-02 18:15:00
1:35 PM,70.0,46.9,44,29.91,10.0,NW,9.2,18.4,N/A,,Scattered Clouds,310,2013-08-02 18:35:00
1:55 PM,70.0,47.3,44,29.91,10.0,NW,10.4,21.9,N/A,,Mostly Cloudy,320,2013-08-02 18:55:00
2:15 PM,70.5,48.9,46,29.91,10.0,WNW,11.5,18.4,N/A,,Mostly Cloudy,300,2013-08-02 19:15:00
2:35 PM,70.9,48.9,46,29.92,10.0,NNW,9.2,16.1,N/A,,Mostly Cloudy,330,2013-08-02 19:35:00
2:55 PM,68.5,48.0,48,29.92,10.0,NW,10.4,-,N/A,,Mostly Cloudy,320,2013-08-02 19:55:00
3:15 PM,68.4,47.8,48,29.93,10.0,NNW,11.5,-,N/A,,Scattered Clouds,330,2013-08-02 20:15:00
3:35 PM,69.8,46.4,43,29.93,10.0,NNW,13.8,19.6,N/A,,Clear,330,2013-08-02 20:35:00
3:55 PM,69.1,46.8,45,29.93,10.0,NW,10.4,17.3,N/A,,Clear,320,2013-08-02 20:55:00
4:15 PM,69.6,47.1,45,29.93,10.0,NNW,12.7,17.3,N/A,,Clear,340,2013-08-02 21:15:00
4:35 PM,69.8,46.9,44,29.93,10.0,NW,9.2,17.3,N/A,,Scattered Clouds,320,2013-08-02 21:35:00
4:55 PM,69.4,46.4,44,29.93,10.0,NNW,11.5,17.3,N/A,,Scattered Clouds,330,2013-08-02 21:55:00
5:15 PM,66.4,46.0,48,29.94,10.0,NW,8.1,-,N/A,,Clear,320,2013-08-02 22:15:00
5:35 PM,67.3,48.2,50,29.94,10.0,NNW,8.1,17.3,N/A,,Clear,330,2013-08-02 22:35:00
5:55 PM,67.6,46.9,47,29.95,10.0,NW,8.1,18.4,N/A,,Scattered Clouds,310,2013-08-02 22:55:00
6:15 PM,66.6,46.8,49,29.95,10.0,NW,9.2,-,N/A,,Clear,320,2013-08-02 23:15:00
6:35 PM,66.7,46.8,49,29.95,10.0,NNW,5.8,-,N/A,,Clear,330,2013-08-02 23:35:00
6:55 PM,66.0,47.8,52,29.96,10.0,NW,5.8,-,N/A,,Scattered Clouds,320,2013-08-02 23:55:00
7:15 PM,65.8,48.0,53,29.96,10.0,NW,3.5,-,N/A,,Clear,310,2013-08-03 00:15:00
7:35 PM,64.9,48.0,54,29.96,10.0,NW,5.8,-,N/A,,Clear,320,2013-08-03 00:35:00
7:55 PM,63.3,49.1,60,29.96,10.0,Calm,Calm,-,N/A,,Clear,0,2013-08-03 00:55:00
8:15 PM,57.6,51.4,80,29.97,10.0,Calm,Calm,-,N/A,,Clear,0,2013-08-03 01:15:00
8:35 PM,54.5,51.4,89,29.98,10.0,West,3.5,-,N/A,,Clear,280,2013-08-03 01:35:00
8:55 PM,53.1,51.1,93,29.99,10.0,Calm,Calm,-,N/A,,Clear,0,2013-08-03 01:55:00
9:15 PM,52.7,50.9,94,30.00,10.0,Calm,Calm,-,N/A,,Clear,0,2013-08-03 02:15:00
9:35 PM,51.1,49.6,95,30.00,10.0,Calm,Calm,-,N/A,,Scattered Clouds,0,2013-08-03 02:35:00
9:55 PM,50.5,49.5,96,30.00,10.0,Calm,Calm,-,N/A,,Scattered Clouds,0,2013-08-03 02:55:00
10:15 PM,49.8,48.7,96,30.01,10.0,Calm,Calm,-,N/A,,Clear,0,2013-08-03 03:15:00
10:35 PM,48.7,47.8,97,30.01,10.0,Calm,Calm,-,N/A,,Clear,0,2013-08-03 03:35:00
10:55 PM,48.9,48.2,97,30.01,10.0,Calm,Calm,-,N/A,,Clear,0,2013-08-03 03:55:00
11:15 PM,47.8,47.1,97,30.02,10.0,Calm,Calm,-,N/A,,Clear,0,2013-08-03 04:15:00
11:35 PM,47.7,46.8,97,30.02,10.0,Calm,Calm,-,N/A,,Scattered Clouds,0,2013-08-03 04:35:00
11:55 PM,46.8,46.2,98,30.03,10.0,Calm,Calm,-,N/A,,Mostly Cloudy,0,2013-08-03 04:55:00